Regional Weather Roundup
Issued by NWS Midland/Odessa, TX

Home | Current Version | Previous Version | Text Only | Print | Product List | Glossary On
Versions: 1 2 3 4 5 6 7 8 9 10 11 12 13 14 15 16 17 18 19 20 21 22 23 24 25 26 27 28 29 30 31 32 33 34 35 36 37 38 39 40 41 42 43 44 45 46 47 48 49 50
000
ASUS44 KMAF 262110
RWRMAF
MIDLAND AREA WEATHER ROUNDUP
NATIONAL WEATHER SERVICE MIDLAND TX
400 PM CDT THU APR 26 2018

...IN SOUTHWEST TEXAS AND SOUTHEAST NEW MEXICO...

CITY           SKY/WX    TMP DP  RH WIND       PRES   REMARKS
ALPINE         FAIR      84  32  15 W12G22    30.03F
ANDREWS        FAIR      82  34  18 NW10      29.93F
ARTESIA        FAIR      84  28  13 NE22G30   29.94R
BIG SPRING     FAIR      80  37  21 S8G17     29.95S
CARLSBAD       FAIR      85  33  15 E13       29.89F
DRYDEN           N/A     83  47  28 SE9       29.88F
FORT STOCKTON  FAIR      89  32  13 N14G26    29.89F
GUAD PASS      FAIR      80  25  13 W22G29    30.05F
HOBBS          SUNNY     84  23  10 N18G26    29.92F
LAMESA         MOCLDY    79  36  21 N7G21     29.94F
MARFA          FAIR      82  32  16 W18       30.03F
MIDLAND AIRPK    N/A     86  38  18 W8        29.92F
MIDLAND INTL   FAIR      82  40  22 SW8       29.91F
ODESSA         FAIR      82  35  18 NW10      29.92F
PECOS          FAIR      87  39  18 N7        29.88F
PRESIDIO       FAIR      87  40  19 S5        29.93F
SEMINOLE       FAIR      80  32  17 S5        29.93F
SNYDER         FAIR      75  34  22 SE9       29.95S
WINK           FAIR      88  33  14 MISG      29.88F
$$
...OTHER STATIONS IN TEXAS...

CITY           SKY/WX    TMP DP  RH WIND       PRES   REMARKS
ABILENE        FAIR      74  38  27 S7        29.95F
AMARILLO       FAIR      70  34  26 N30G44    30.03F
AUSTIN         FAIR      75  45  34 S3        29.95F
BROWNSVILLE    CLOUDY    78  65  63 NE10      29.96F
CORPUS CHRISTI FAIR      72  52  49 VRB5      29.96F
DALLAS FTW     FAIR      71  44  37 VRB6      29.96F
DEL RIO        FAIR      83  53  35 SE13      29.88F
EL PASO        PTSUNNY   86  26  11 NE10      29.97F
HOUSTON INT    FAIR      76  49  38 N8        29.94F
LUBBOCK        PTSUNNY   76  32  20 N25G38    29.93F
SAN ANGELO     FAIR      79  41  25 S10G17    29.92F
SAN ANTONIO    FAIR      74  47  38 CALM      29.96F
WACO           FAIR      76  43  30 E8        29.95F
WICHITA FALLS  PTSUNNY   69  44  40 NW12      30.00S
$$
...OTHER LOCATIONS IN NEW MEXICO...

CITY           SKY/WX    TMP DP  RH WIND       PRES   REMARKS
ALAMOGORDO     FAIR      82  27  13 N18G24    29.99F
ALBUQUERQUE    FAIR      79   9   7 W12G23    30.04F
CANNON AFB     FAIR      70  27  20 NE32G43   30.09R
CLOVIS         FAIR      70  28  21 NE30G43   30.07S
HOLLOMAN AFB   FAIR      83  29  14 W7        30.00F
ROSWELL        FAIR      82  25  12 NE28G38   29.96S
RUIDOSO        NOT AVBL
SANTA FE       FAIR      74   5   7 VRB7      30.08F
TRUTH OR CONSE FAIR      82  19   9 CALM      30.00F
TUCUMCARI      FAIR      72  28  19 NE25G39   30.07S
$$




USA.gov is the U.S. government's official web portal to all federal, state and local government web resources and services.